Airfield :
LOGIN :

Register | Disclaimer

   EN    FR    IT 

 










Legend :    VFR   Marginal VFR   IFR   Intensive IFR   Very Intensive IFR
Visi :
Ceiling :
>= 8 km
>= 3000ft
5 to 8 km
1000 to 3000 ft
1500m to 5 km
500 to 1000 ft
800 to 1500m
200 to 500 ft
< 800m
< 200 ft
Symbols :   Thunderstorms  Fog  Heavy snow  Heavy precipitations  Wind > 20 kt
SIGMETs :     Misc.  Thunderstorms  Icing  Turbulence  Mountain Waves  Volcanic Ashes







- Airport Elevation : 11 ft
- IATA code : MJV


LELC - Murcia San Javier

CURRENT METAR :
  • 201730Z 09006KT 050V120 CAVOK 28/20 Q1016 NOSIG

EXPIRED METARs :
  • 201700Z 10007KT 060V140 CAVOK 28/21 Q1016 NOSIG
  • 201630Z 09008KT 050V130 CAVOK 28/20 Q1017 NOSIG
  • 201600Z 09008KT 050V120 CAVOK 29/19 Q1017 NOSIG
  • 201530Z 09008KT 030V120 CAVOK 29/20 Q1017 NOSIG
  • 201500Z 08008KT 030V130 CAVOK 29/19 Q1017 NOSIG

TAF TAF LELC
Valid from the 20 at 18:00 until the 21 at 18:00 UTC


201700Z 2018/2118 07010KT CAVOK TX32/2114Z TN23/2106Z
BECMG 2021/2023 34005KT
BECMG 2108/2110 09010KT
No reported NOTAMs for that airfield.



MET'MAP, your aeronautical weather chart ! - Copyright ORBIFLY December 2007 - Disclaimer

ORBIFLY MET'MAP TEAM :

Programming & Development : Alexandra Zaïnal
Concept & Development : Baudouin d'Aumeries
Co-Development & Prog : Marc-Olivier Méhu
Technical & hardware support : Manuel Goepfert

Contact : metmap@orbifly.com




SOURCES & CREDITS :

   NOAA